[[{"header":{"parameterUnit":"m.s-1","parameterCategory":1,"la1":30.2992,"la2":30.254,"lo1":-89.0895,"lo2":-89.0443,"dy":0.0025,"dx":0.0025,"nx":19,"ny":19,"refTime":"2026-04-24T03:00:00:Z","depth":0,"parameterNumber":2,"parameterNumberName":"U-component_of_WINDS"},"data":[0,0,0,-1.9954,-1.9956,-2.0057,-2.0058,-2.0183,-2.0184,0,0,0,0,0,0,0,0,0,0,0,-1.992,-1.9921,-1.9953,-1.9956,-2.0057,-2.0058,-2.0183,-2.0184,0,0,0,0,0,0,0,0,0,0,0,-1.9919,-1.992,-1.9921,-1.9956,-2.0057,-2.0058,-2.0182,-2.0108,0,0,0,0,0,0,0,0,0,0,-2.001,-1.9975,-1.992,-1.9921,-1.9957,-2.0057,-2.0058,-2.0104,-2.0112,-2.0135,0,-2.0153,0,-2.017,-2.0192,-2.0192,0,0,0,-1.9958,-1.9968,-1.9999,-1.9921,-1.9958,-2.0057,-2.0012,-2.0109,-2.0118,-2.0145,-2.0155,-2.016,-2.0173,-2.0193,-2.0193,-2.0313,-2.0313,0,0,-1.9953,-1.9936,-1.9992,-2.0005,-1.9988,-2.0009,-2.0015,-2.0114,-2.0124,-2.0155,-2.0163,-2.0175,-2.0194,-2.0194,-2.0312,-2.0313,0,0,0,-1.9935,-1.9932,-1.9961,-1.9999,-2.0018,-2.0012,-2.0019,-2.0119,-2.013,-2.0164,-2.0176,-2.0194,-2.0196,-2.0312,-2.0312,-2.0316,0,0,0,-1.9932,-1.9922,-1.9958,-1.9949,-2.0016,-2.007,-2.0022,-2.0123,-2.0135,-2.0175,-2.0194,-2.0197,-2.0311,-2.0312,-2.0315,-2.032,0,0,0,-1.9914,-1.992,-1.9933,-1.9948,-1.9991,-2.0068,-2.0085,-2.0126,-2.0142,-2.0192,-2.0197,-2.0311,-2.0312,-2.0314,-2.0319,-2.0346,0,0,0,-1.9891,-1.9935,-1.9933,-1.9987,-1.999,-2.007,-2.0084,-2.0146,-2.019,-2.0195,-2.0311,-2.0312,-2.0314,-2.0318,-2.0345,-2.0365,-2.0372,0,0,-1.9937,-1.994,-1.9973,-1.9974,-2.0051,-2.0056,-2.0134,-2.0191,-2.0211,-2.0278,-2.0281,-2.0315,-2.0319,-2.0346,-2.0421,-2.0426,0,0,0,-1.9982,-2.0006,-2.003,-2.0071,-2.0115,-2.0154,-2.02,-2.0222,-2.0279,-2.0242,-2.0334,-2.0337,-2.0353,-2.0364,-2.0368,-2.0384,-2.0317,-2.0317,-2.0317,-2.0022,-2.0046,-2.0103,-2.014,-2.018,-2.0228,-2.0263,-2.03,-2.0313,-2.0334,-2.0353,-2.0396,-2.0407,-2.0411,-2.0427,-2.0368,-2.0368,-2.0368,-2.0368,-2.0091,-2.0127,-2.0145,-2.0206,-2.0232,-2.0284,-2.0333,-2.0341,-2.0393,-2.0383,-2.0399,-2.0384,-2.0416,-2.0431,-2.0368,-2.0368,-2.0368,-2.0368,-2.0368,-2.0118,-2.0139,-2.0165,-2.0228,-2.0274,-2.0311,-2.0361,-2.0383,-2.0405,-2.0421,-2.0444,-2.0444,-2.0445,-2.0431,-2.0431,-2.0431,-2.0431,-2.0431,-2.0431,-2.0135,-2.0164,-2.0202,-2.0255,-2.0284,-2.0327,-2.0378,-2.0408,-2.0448,-2.046,-2.0461,-2.0471,-2.0415,-2.04,-2.0434,-2.0433,-2.0433,-2.0433,-2.0432,-2.0192,-2.0183,-2.0243,-2.0273,-2.0337,-2.0381,-2.041,-2.0471,-2.05,-2.0524,-2.0533,-2.0488,-2.0492,-2.0489,-2.0476,-2.0527,-2.0527,-2.0527,-2.0527,-2.0214,-2.0219,-2.0285,-2.0332,-2.0381,-2.0414,-2.0482,-2.0523,-2.0564,-2.0583,-2.058,-2.0566,-2.0561,-2.0568,-2.0563,-2.0551,-2.0621,-2.0621,-2.0621,-2.025,-2.0261,-2.0313,-2.0353,-2.0405,-2.045,-2.0515,-2.0569,-2.0614,-2.0625,-2.0599,-2.0595,-2.0573,-2.0564,-2.0572,-2.0563,-2.0542,0,0]},{"header":{"parameterUnit":"m.s-1","parameterCategory":1,"la1":30.2992,"la2":30.254,"lo1":-89.0895,"lo2":-89.0443,"dy":0.0025,"dx":0.0025,"nx":19,"ny":19,"refTime":"2026-04-24T03:00:00:Z","depth":0,"parameterNumber":3,"parameterNumberName":"V-component_of_WINDS"},"data":[0,0,0,4.9773,4.9772,4.9729,4.9729,4.9661,4.966,0,0,0,0,0,0,0,0,0,0,0,4.9779,4.9779,4.9773,4.9772,4.9729,4.9729,4.9661,4.966,0,0,0,0,0,0,0,0,0,0,0,4.978,4.9779,4.9778,4.9772,4.9729,4.9729,4.9661,4.9698,0,0,0,0,0,0,0,0,0,0,4.9741,4.9741,4.9779,4.9778,4.9771,4.9729,4.9729,4.9699,4.9695,4.9675,0,4.9657,0,4.9658,4.9655,4.9654,0,0,0,4.9776,4.9745,4.9739,4.9778,4.9771,4.9729,4.9749,4.9697,4.9692,4.9669,4.9656,4.9654,4.9656,4.9654,4.9654,4.9531,4.953,0,0,4.9778,4.9767,4.9743,4.9736,4.9744,4.9751,4.9748,4.9694,4.9678,4.9656,4.9653,4.9655,4.9654,4.9653,4.9531,4.9531,0,0,0,4.9782,4.9769,4.9765,4.9739,4.9732,4.9749,4.9746,4.9681,4.9681,4.9652,4.9655,4.9653,4.9652,4.9532,4.9531,4.9485,0,0,0,4.9784,4.9771,4.9766,4.9759,4.9733,4.9706,4.9733,4.9684,4.9679,4.9655,4.9653,4.9651,4.9533,4.9532,4.9488,4.9463,0,0,0,4.9784,4.9771,4.9763,4.9758,4.974,4.9707,4.9704,4.9683,4.968,4.9654,4.9651,4.9534,4.9532,4.949,4.9468,4.9429,0,0,0,4.978,4.972,4.9762,4.9696,4.974,4.968,4.9705,4.9659,4.9632,4.9653,4.9533,4.9531,4.9491,4.9471,4.9432,4.9394,4.9378,0,0,4.9698,4.9709,4.9671,4.9708,4.9638,4.9687,4.9609,4.9593,4.9598,4.9553,4.955,4.9487,4.9468,4.943,4.929,4.9276,0,0,0,4.9641,4.9614,4.9597,4.9573,4.9561,4.9549,4.9546,4.954,4.9503,4.9573,4.9463,4.9452,4.943,4.9412,4.9401,4.9383,4.9523,4.9523,4.9523,4.9506,4.9521,4.9459,4.9469,4.9445,4.9445,4.9426,4.9418,4.9436,4.9411,4.9396,4.931,4.9289,4.9281,4.9262,4.9378,4.9378,4.9378,4.9378,4.9387,4.935,4.9381,4.9333,4.9348,4.9306,4.9305,4.932,4.9283,4.9321,4.9302,4.9341,4.9266,4.925,4.9374,4.9375,4.9375,4.9376,4.9376,4.93,4.9285,4.9282,4.925,4.9223,4.9235,4.92,4.9214,4.9227,4.9209,4.9196,4.9197,4.92,4.9202,4.9202,4.9202,4.9201,4.9201,4.9201,4.921,4.9209,4.9178,4.9164,4.9152,4.9137,4.9139,4.9126,4.9116,4.913,4.913,4.9151,4.9257,4.9283,4.9196,4.9197,4.9198,4.9198,4.9199,4.9083,4.9115,4.9068,4.9056,4.9042,4.9015,4.9036,4.901,4.9002,4.8985,4.9012,4.9087,4.9099,4.9108,4.913,4.9009,4.9009,4.9009,4.9009,4.9009,4.9018,4.8975,4.8956,4.8938,4.8953,4.8899,4.8901,4.8907,4.8903,4.8923,4.8954,4.8962,4.8969,4.8981,4.9001,4.8851,4.885,4.885,4.8932,4.8941,4.8892,4.8902,4.8893,4.8884,4.8835,4.881,4.8824,4.8844,4.8901,4.8907,4.8957,4.8972,4.8991,4.9009,4.9047,0,0]}]]